Weather History for Marfa, TX

Change the Weather History Date:

Friday, January 6, 2012

  Actual Average Record
Temperature  
Mean Temperature 40 °F -  
Max Temperature 64 °F 56 °F 69 °F (2008)
Min Temperature 17 °F 25 °F 14 °F (2014)
Degree Days  
Heating Degree Days 24    
Moisture  
Dew Point 10 °F    
Average Humidity 34    
Maximum Humidity 63    
Minimum Humidity 11    
Precipitation  
Precipitation 0.00 in - - ()
Sea Level Pressure  
Sea Level Pressure 30.07 in    
Wind  
Wind Speed 7 mph (WNW)    
Max Wind Speed 28 mph    
Max Gust Speed 31 mph    
Visibility 10 miles    
Events      
Averages and records for this station are not official NWS values.
T = Trace of Precipitation, MM = Missing Value Source: NWS Daily Summary

Daily Weather History Graph

Daily Weather History Graph

Search for Another Location

Airport:

Trip Planner

Search our weather history database for the weather conditions in past years. The results will help you decide how hot, cold, wet, or windy it might be!

Date:

Astronomy

Jan. 06, 2012 Rise Set
Actual Time 7:53 AM CST 6:10 PM CST
Civil Twilight 7:27 AM CST 6:36 PM CST
Nautical Twilight 6:57 AM CST 7:06 PM CST
Astronomical Twilight 6:28 AM CST 7:35 PM CST
Moon 4:04 PM CST (1/6) 5:34 AM CST (1/6)
Length of Visible Light 11h 08m
Length of Day
10h 16m
Waxing Gibbous, 93% of the Moon is Illuminated
Jan 6
Waxing Gibbous
Jan 9
Full
Jan 16
Last Quarter
Jan 23
New
Jan 30
First Quarter

Hourly Weather History & Observations

Time (CST) Temp. Windchill Dew Point Humidity Pressure Visibility Wind Dir Wind Speed Gust Speed Precip Events Conditions
12:15 AM 28.4 °F 24.6 °F 8.6 °F 43% 30.14 in 10.0 mi East 3.5 mph - N/A   Clear
12:35 AM 28.4 °F 24.6 °F 8.6 °F 43% 30.12 in 10.0 mi East 3.5 mph - N/A   Clear
12:55 AM 26.6 °F 21.2 °F 6.8 °F 43% 30.12 in 10.0 mi NE 4.6 mph - N/A   Clear
1:15 AM 26.6 °F 20.0 °F 6.8 °F 43% 30.11 in 10.0 mi NE 5.8 mph - N/A   Clear
1:35 AM 23.0 °F 17.0 °F 5.0 °F 46% 30.11 in 10.0 mi NE 4.6 mph - N/A   Clear
2:15 AM 21.2 °F 14.9 °F 3.2 °F 46% 30.09 in 10.0 mi NE 4.6 mph - N/A   Clear
2:35 AM 21.2 °F 16.4 °F 3.2 °F 46% 30.10 in 10.0 mi NNE 3.5 mph - N/A   Clear
2:55 AM 21.2 °F 16.4 °F 5.0 °F 50% 30.10 in 10.0 mi NNE 3.5 mph - N/A   Clear
3:15 AM 21.2 °F - 5.0 °F 50% 30.09 in 10.0 mi Calm Calm - N/A   Clear
3:35 AM 23.0 °F - 6.8 °F 50% 30.09 in 10.0 mi Calm Calm - N/A   Clear
3:55 AM 21.2 °F - 6.8 °F 54% 30.09 in 10.0 mi Calm Calm - N/A   Clear
4:15 AM 21.2 °F 16.4 °F 5.0 °F 50% 30.08 in 10.0 mi North 3.5 mph - N/A   Clear
4:35 AM 23.0 °F 18.4 °F 8.6 °F 54% 30.08 in 10.0 mi NNE 3.5 mph - N/A   Clear
4:55 AM 24.8 °F - 8.6 °F 50% 30.08 in 10.0 mi Calm Calm - N/A   Clear
5:15 AM 28.4 °F - 12.2 °F 51% 30.07 in 10.0 mi Calm Calm - N/A   Clear
5:35 AM 21.2 °F 16.4 °F 5.0 °F 50% 30.07 in 10.0 mi North 3.5 mph - N/A   Clear
5:55 AM 26.6 °F 22.6 °F 12.2 °F 55% 30.07 in 10.0 mi NE 3.5 mph - N/A   Clear
6:15 AM 23.0 °F 18.4 °F 8.6 °F 54% 30.07 in 10.0 mi NNE 3.5 mph - N/A   Clear
6:35 AM 21.2 °F 14.9 °F 6.8 °F 54% 30.07 in 10.0 mi NE 4.6 mph - N/A   Clear
6:55 AM 19.4 °F - 8.6 °F 63% 30.07 in 10.0 mi Calm Calm - N/A   Clear
7:15 AM 19.4 °F - 5.0 °F 54% 30.07 in 10.0 mi Calm Calm - N/A   Clear
7:35 AM 17.6 °F - 3.2 °F 53% 30.07 in 10.0 mi Calm Calm - N/A   Clear
7:55 AM 19.4 °F 14.3 °F 6.8 °F 58% 30.07 in 10.0 mi NNE 3.5 mph 20.7 mph N/A   Clear
8:15 AM 19.4 °F 12.8 °F 6.8 °F 58% 30.07 in 10.0 mi NE 4.6 mph - N/A   Clear
8:35 AM 24.8 °F 19.1 °F 8.6 °F 50% 30.08 in 10.0 mi NE 4.6 mph - N/A   Clear
8:55 AM 30.2 °F - 14.0 °F 51% 30.08 in 10.0 mi Calm Calm - N/A   Clear
9:15 AM 35.6 °F - 15.8 °F 44% 30.09 in 10.0 mi Calm Calm - N/A   Clear
9:35 AM 39.2 °F 35.9 °F 15.8 °F 39% 30.09 in 10.0 mi WSW 4.6 mph - N/A   Clear
9:55 AM 42.8 °F 38.6 °F 17.6 °F 36% 30.10 in 10.0 mi SW 6.9 mph - N/A   Clear
10:15 AM 48.2 °F - 17.6 °F 30% 30.10 in 10.0 mi SSW 8.1 mph - N/A   Clear
10:35 AM 51.8 °F - 17.6 °F 26% 30.11 in 10.0 mi SSW 12.7 mph - N/A   Clear
10:55 AM 53.6 °F - 17.6 °F 24% 30.10 in 10.0 mi SSW 11.5 mph - N/A   Clear
11:15 AM 57.2 °F - 15.8 °F 20% 30.10 in 10.0 mi WSW 17.3 mph 24.2 mph N/A   Clear
11:35 AM 57.2 °F - 14.0 °F 18% 30.09 in 10.0 mi WSW 19.6 mph 26.5 mph N/A   Clear
11:55 AM 60.8 °F - 14.0 °F 16% 30.09 in 10.0 mi WSW 20.7 mph 24.2 mph N/A   Clear
12:15 PM 60.8 °F - 14.0 °F 16% 30.07 in 10.0 mi WSW 19.6 mph 25.3 mph N/A   Clear
12:35 PM 62.6 °F - 12.2 °F 14% 30.06 in 10.0 mi WSW 20.7 mph 26.5 mph N/A   Clear
12:55 PM 62.6 °F - 12.2 °F 14% 30.04 in 10.0 mi WSW 19.6 mph 25.3 mph N/A   Clear
1:15 PM 62.6 °F - 12.2 °F 14% 30.03 in 10.0 mi WSW 21.9 mph - N/A   Clear
1:35 PM 64.4 °F - 12.2 °F 13% 30.03 in 10.0 mi West 23.0 mph 29.9 mph N/A   Clear
1:55 PM 64.4 °F - 10.4 °F 12% 30.02 in 10.0 mi West 23.0 mph 31.1 mph N/A   Clear
2:15 PM 64.4 °F - 10.4 °F 12% 30.02 in 10.0 mi West 21.9 mph 28.8 mph N/A   Clear
2:35 PM 64.4 °F - 10.4 °F 12% 30.01 in 10.0 mi West 20.7 mph 26.5 mph N/A   Clear
2:55 PM 64.4 °F - 8.6 °F 11% 30.01 in 10.0 mi West 27.6 mph - N/A   Clear
3:15 PM 62.6 °F - 8.6 °F 12% 30.01 in 10.0 mi West 24.2 mph 31.1 mph N/A   Clear
3:35 PM 64.4 °F - 8.6 °F 11% 30.01 in 10.0 mi West 20.7 mph 27.6 mph N/A   Clear
4:15 PM 62.6 °F - 8.6 °F 12% 30.00 in 10.0 mi West 24.2 mph 31.1 mph N/A   Clear
4:35 PM 62.6 °F - 8.6 °F 12% 30.01 in 10.0 mi West 26.5 mph - N/A   Clear
4:55 PM 60.8 °F - 8.6 °F 13% 30.01 in 10.0 mi West 24.2 mph - N/A   Clear
5:35 PM 60.8 °F - 8.6 °F 13% 30.02 in 10.0 mi West 20.7 mph 25.3 mph N/A   Clear
5:55 PM 57.2 °F - 8.6 °F 14% 30.03 in 10.0 mi West 11.5 mph - N/A   Clear
6:15 PM 55.4 °F - 6.8 °F 14% 30.05 in 10.0 mi West 6.9 mph - N/A   Clear
6:35 PM 51.8 °F - 6.8 °F 16% 30.05 in 10.0 mi Calm Calm - N/A   Clear
6:55 PM 51.8 °F - 8.6 °F 18% 30.06 in 10.0 mi WNW 4.6 mph - N/A   Clear
7:15 PM 51.8 °F - 6.8 °F 16% 30.06 in 10.0 mi West 3.5 mph - N/A   Clear
7:35 PM 48.2 °F - 6.8 °F 19% 30.06 in 10.0 mi Calm Calm - N/A   Clear
7:55 PM 50.0 °F - 8.6 °F 19% 30.06 in 10.0 mi WSW 9.2 mph - N/A   Clear
8:15 PM 46.4 °F 40.1 °F 6.8 °F 20% 30.05 in 10.0 mi WSW 15.0 mph - N/A   Clear
8:35 PM 44.6 °F 39.7 °F 6.8 °F 21% 30.06 in 10.0 mi West 9.2 mph - N/A   Clear
8:55 PM 39.2 °F 35.9 °F 3.2 °F 22% 30.07 in 10.0 mi North 4.6 mph - N/A   Clear
9:15 PM 48.2 °F - 8.6 °F 20% 30.07 in 10.0 mi NW 10.4 mph - N/A   Clear
9:35 PM 44.6 °F 39.2 °F 5.0 °F 20% 30.08 in 10.0 mi NW 10.4 mph - N/A   Clear
9:55 PM 48.2 °F - 8.6 °F 20% 30.08 in 10.0 mi NW 10.4 mph - N/A   Clear
10:15 PM 42.8 °F 39.3 °F 5.0 °F 21% 30.09 in 10.0 mi WNW 5.8 mph - N/A   Clear
10:35 PM 39.2 °F 33.0 °F 5.0 °F 24% 30.09 in 10.0 mi West 9.2 mph - N/A   Clear
10:55 PM 39.2 °F 32.0 °F 6.8 °F 26% 30.09 in 10.0 mi West 11.5 mph - N/A   Clear
11:15 PM 39.2 °F 33.6 °F 6.8 °F 26% 30.09 in 10.0 mi NW 8.1 mph - N/A   Clear
11:35 PM 39.2 °F 32.0 °F 6.8 °F 26% 30.09 in 10.0 mi NW 11.5 mph - N/A   Clear
11:55 PM 35.6 °F 28.6 °F 5.0 °F 28% 30.08 in 10.0 mi NW 9.2 mph - N/A   Clear